Regional Weather Roundup
Issued by NWS Midland/Odessa, TX

Skip options and go directly to product.
Home | Oldest Version | Next Version | Current Version | All | Text Only | Save Text | Print | Product List | Glossary On

Skip product version selection by date and time.   
671
ASUS44 KMAF 272001
RWRMAF
MIDLAND AREA WEATHER ROUNDUP
NATIONAL WEATHER SERVICE MIDLAND TX
200 PM CST FRI FEB 27 2015

...IN SOUTHWEST TEXAS AND SOUTHEAST NEW MEXICO...

CITY           SKY/WX    TMP DP  RH WIND       PRES   REMARKS
ALPINE         CLOUDY    26  26  96 NE3       30.16F
ANDREWS        LGT SNOW  20  16  84 MISG      30.24F
ARTESIA        CLOUDY    23  21  93 S14       30.18F WCI  11
BIG SPRING     CLOUDY    21  17  84 NE13G18   30.31F WCI   9
CARLSBAD       CLOUDY    26  18  71 SE7       30.18F WCI  18
DRYDEN           N/A     34  29  82 E9        30.20F WCI  27
FORT STOCKTON  CLOUDY    27  27 100 NE12      30.19F FOG     WCI  17
GUAD PASS      FOG       20  17  88 NE25      30.00F VSB 3/4 WCI   2
HOBBS          CLOUDY    19  16  86 E13       30.20F WCI   7
MARFA          CLOUDY    30  25  80 NE15      30.06F WCI  19
MIDLAND AIRPK  MIX PCPN  23  19  85 E10       30.27F WCI  12
MIDLAND INTL   CLOUDY    21  17  84 E14       30.24F FOG     WCI   8
ODESSA         CLOUDY    21  16  81 E13       30.24F HAZE    WCI   9
PECOS          CLOUDY    26  24  92 NE13      30.25F FOG     WCI  14
PRESIDIO       FAIR      47  30  51 NE20G25   30.06F WCI  39
SEMINOLE       LGT SNOW  20  15  79 E12       30.24F WCI   8
SNYDER         CLOUDY    18  13  80 NE14      30.33F WCI   4
WINK           CLOUDY    25  18  74 E12       30.22F WCI  14
$$
...OTHER STATIONS IN TEXAS...

CITY           SKY/WX    TMP DP  RH WIND       PRES   REMARKS
ABILENE        CLOUDY    21  16  81 NE9       30.36F WCI  11
AMARILLO       LGT SNOW  15   9  76 SE13      30.24F WCI   1
AUSTIN         CLOUDY    36  26  67 NE16      30.34F WCI  26
BROWNSVILLE    CLOUDY    63  54  72 N7        30.16F
CORPUS CHRISTI CLOUDY    54  44  69 E18       30.22F
DALLAS FTW     SNOW      26  22  84 NE13      30.42F VSB 1/2 WCI  15
DEL RIO        CLOUDY    38  30  73 E5        30.27F WCI  34
EL PASO        MOSUNNY   41  24  51 E8G18     29.99F WCI  36
HOUSTON INT    CLOUDY    43  32  65 NE9       30.36F WCI  38
LUBBOCK        LGT SNOW  17  10  74 E10       30.25F WCI   5
SAN ANGELO     CLOUDY    26  24  92 NE13      30.30F WCI  15
SAN ANTONIO    LGT RAIN  34  29  82 NE9       30.30F WCI  27
WACO           CLOUDY    30  24  78 NE10      30.41F WCI  21
WICHITA FALLS  NOT AVBL
$$
...OTHER LOCATIONS IN NEW MEXICO...

CITY           SKY/WX    TMP DP  RH WIND       PRES   REMARKS
ALAMAGORDO     CLOUDY    37  27  65 CALM      30.00F
ALBUQUERQUE    FLURRIES  26  21  81 N7        29.96F WCI  18
CANNON AFB     LGT SNOW  14   9  80 SE13      30.15F WCI   0
CLOVIS         CLOUDY    12   7  79 SE13      30.17F WCI  -3
HOLLOMAN AFB   CLOUDY    40  25  54 S10       29.99F WCI  34
ROSWELL        CLOUDY    22  16  78 S10       30.17F WCI  11
RUIDOSO        FOG       18  16  93 SE5       29.99F VSB<1/4 WCI  11
SANTA FE       CLOUDY    19  10  68 SE17G23   29.93F WCI   4
TRUTH OR CONSE PTSUNNY   42  28  57 VRB3      29.90F
TUCUMCARI      CLOUDY    18  10  71 S14       30.15F WCI   4
$$

USA.gov is the U.S. government's official web portal to all federal, state and local government web resources and services.